GFSSGP_700_spd_021.txt.gz
Wind_Speed
9 7 5 4 3 4 7 4 7 9 14 14 15 15 18 20 19 15 17 20 22 23 26 25 26 23 23 23 23 23 22 21 21 22 23 25 25 25 24 23 24 25 25 27 27 28 27 27 29
6 7 5 2 4 6 1 5 11 11 14 14 17 19 20 21 21 17 15 18 21 24 25 27 25 20 19 18 17 19 20 22 23 25 25 25 26 28 28 26 25 26 26 27 28 29 29 28 29
5 5 4 3 7 8 4 6 15 16 16 19 20 21 21 22 18 14 16 20 23 24 25 27 22 19 19 19 20 21 23 24 25 27 28 27 27 27 27 28 27 26 27 27 27 28 30 30 30
4 5 5 10 11 10 10 11 16 12 12 14 18 19 20 19 17 18 19 21 21 25 24 24 19 18 18 21 24 26 26 25 27 28 29 27 27 27 28 27 27 27 26 27 28 27 27 29 29
5 5 9 14 14 13 11 4 10 17 23 21 22 17 17 17 20 19 19 20 21 25 23 21 16 16 18 21 23 27 30 31 31 30 29 28 26 25 25 26 27 27 27 27 28 27 27 27 28
10 7 11 16 17 17 16 6 8 8 17 16 17 15 24 21 27 19 21 18 21 24 24 22 17 16 18 23 27 29 32 34 34 32 30 28 27 25 24 24 25 26 27 27 27 27 27 26 27
12 11 17 19 19 18 9 8 6 10 9 16 15 21 25 25 21 21 19 21 21 24 25 25 20 18 19 23 28 31 34 38 38 34 29 29 28 24 22 21 21 22 22 23 24 26 27 29 28
17 16 21 22 21 20 16 12 13 10 13 17 19 22 23 23 20 23 22 21 23 25 24 25 24 21 23 27 30 33 36 39 39 34 28 26 24 23 21 21 21 20 21 21 23 25 26 27 29
21 22 24 23 24 15 13 13 15 14 18 19 27 22 19 22 23 23 22 21 24 27 28 25 25 24 25 29 32 34 37 39 39 33 29 24 21 20 21 22 23 21 20 19 19 20 23 25 28
28 31 29 24 29 25 19 17 16 16 17 18 28 30 27 24 21 21 21 22 26 30 31 28 26 25 27 30 33 36 38 41 40 33 27 22 21 21 21 22 23 22 20 18 16 19 18 23 25
35 37 26 29 29 33 28 28 20 23 26 20 24 29 27 24 23 25 28 26 24 24 25 24 26 26 27 30 34 37 39 42 39 31 25 24 23 23 24 23 21 21 21 19 18 19 18 20 23
39 37 35 29 29 35 36 34 30 24 25 23 25 36 29 26 29 26 28 31 29 24 30 26 26 26 27 30 34 36 38 40 34 26 22 20 21 21 23 24 21 20 19 17 18 18 19 19 22
42 35 36 38 36 36 37 36 35 31 23 25 23 34 30 30 32 29 28 31 30 26 31 27 27 25 27 29 34 36 39 39 32 24 21 21 18 21 25 24 20 20 17 16 15 16 19 20 21
34 40 38 38 40 43 40 43 37 35 26 31 32 30 30 30 33 27 29 28 26 25 31 28 26 26 28 30 32 34 38 34 28 24 21 19 20 22 22 22 21 18 17 15 15 16 18 20 22
36 41 40 43 42 40 39 47 43 33 29 34 30 31 34 33 32 31 31 31 28 26 30 29 26 28 29 31 31 35 36 30 25 22 20 20 23 24 22 19 18 17 15 14 15 16 19 22 23
36 39 45 42 38 44 37 50 42 33 34 36 33 32 33 36 29 31 33 32 32 30 32 29 26 30 31 32 32 33 30 26 22 19 20 24 23 22 20 15 13 14 12 14 15 17 21 23 24
36 46 44 48 43 38 34 44 41 37 36 36 26 32 37 30 32 29 30 30 33 32 34 29 28 32 31 32 30 29 23 21 22 22 23 23 18 21 16 11 11 11 12 12 14 17 22 23 22
40 43 47 49 35 27 30 36 38 34 29 26 26 28 27 26 27 29 29 26 32 33 32 33 31 33 31 29 27 24 21 21 24 24 21 19 13 17 12 9 10 10 11 11 15 19 25 22 24
41 36 38 43 37 29 28 28 31 22 26 24 26 22 25 19 26 31 30 25 24 27 27 33 32 31 30 26 24 19 18 20 22 21 14 13 14 11 10 8 8 9 9 11 16 22 24 23 24
43 40 45 43 37 28 29 31 26 23 21 21 24 27 29 26 25 28 31 27 18 20 25 30 31 29 25 24 22 16 17 19 20 20 12 10 11 15 8 8 7 7 6 11 17 23 23 24 24
47 47 45 43 27 28 31 36 23 19 20 21 15 17 18 22 25 23 23 17 15 18 24 29 27 25 22 23 19 15 16 20 20 18 13 9 8 11 5 6 6 5 6 10 18 25 20 17 25
47 44 40 37 32 23 2 9 19 22 24 17 17 20 23 24 27 23 13 13 11 17 24 25 23 21 20 19 15 13 15 17 18 16 11 9 9 4 6 5 5 6 9 14 23 21 15 15 22
50 41 36 32 32 29 31 16 33 22 22 17 20 18 15 13 14 10 8 9 12 19 24 21 20 18 18 14 13 12 14 15 16 13 11 9 6 0 3 5 5 9 10 18 22 20 12 15 23
38 37 26 28 32 21 40 18 17 26 24 20 16 11 9 10 10 7 9 10 15 19 17 18 15 17 13 12 11 11 12 12 13 13 10 8 3 3 3 6 7 11 14 16 19 17 14 14 19
36 32 5 7 9 7 25 18 35 20 12 19 16 17 14 13 7 4 7 9 9 13 15 12 15 12 9 8 8 10 9 10 11 13 8 7 4 4 6 8 11 13 17 14 18 17 15 16 18
42 38 15 6 4 5 26 11 26 19 14 19 22 21 15 11 6 1 7 7 9 11 11 14 11 9 7 5 7 7 7 9 13 11 4 6 5 5 6 10 13 14 15 13 17 18 18 20 20
34 47 38 5 6 0 13 29 32 24 24 24 17 16 17 8 3 6 4 6 6 11 12 8 8 5 4 5 6 6 6 9 11 7 6 7 3 6 9 11 13 15 16 15 13 14 17 15 19
40 29 29 31 5 4 6 12 18 16 7 8 12 13 14 9 2 6 6 6 8 7 5 5 4 3 2 3 3 5 5 8 9 8 9 7 5 5 10 12 12 13 12 12 11 11 13 13 14
44 32 32 29 18 5 2 9 18 16 15 14 13 14 9 5 4 5 6 7 6 4 3 3 2 1 2 2 2 4 3 5 10 8 7 8 9 8 10 11 12 12 12 10 10 13 15 15 18
41 45 31 27 15 28 14 19 4 9 15 20 17 14 9 6 4 6 8 7 3 5 3 2 1 1 1 1 2 2 4 5 8 8 10 10 11 10 11 11 13 13 13 13 10 11 14 18 19

GFSSGP_700_spd_024.txt.gz
Wind_Speed
10 9 8 7 5 5 5 2 5 5 8 14 13 14 15 20 17 13 15 17 18 22 24 23 23 19 17 17 16 16 17 18 19 19 19 20 20 19 19 20 21 22 23 23 22 23 24 24 26
12 10 8 6 5 7 4 2 3 4 8 9 10 15 18 21 21 17 20 20 19 22 23 23 22 19 17 16 17 18 21 22 23 23 24 25 25 24 23 22 23 24 24 24 24 24 24 25 26
10 9 9 5 8 9 4 3 8 9 9 11 14 15 18 19 17 16 20 19 20 19 22 21 19 16 16 16 17 19 22 25 26 27 26 25 25 25 25 25 25 24 24 25 26 26 25 26 28
9 9 8 11 9 8 8 3 4 5 3 16 18 16 20 16 16 17 20 17 22 18 22 20 18 17 17 18 19 21 23 26 28 31 29 29 27 24 24 23 23 24 24 25 26 27 26 25 26
10 9 12 13 12 7 9 9 5 8 12 11 16 17 15 15 21 20 18 17 19 19 22 22 20 18 17 19 21 24 26 27 30 34 32 30 25 24 23 23 22 22 23 23 26 26 26 26 25
12 11 12 15 16 14 12 9 11 6 10 9 13 15 15 17 22 23 18 17 20 20 20 22 19 17 17 19 21 25 27 29 31 34 34 29 25 23 23 22 21 21 21 21 23 25 25 26 27
15 13 16 18 17 14 15 7 12 10 7 8 13 17 19 16 20 21 19 20 20 20 21 21 20 18 17 19 22 24 27 30 33 36 37 30 27 24 21 18 17 17 18 19 20 22 24 26 28
18 17 20 21 20 20 20 11 15 17 13 12 13 16 19 17 21 21 23 20 20 19 20 20 19 18 19 19 22 24 27 30 32 36 36 30 26 24 21 18 17 17 17 19 20 21 22 25 28
22 24 26 25 22 19 19 20 16 18 19 16 16 15 20 22 26 24 21 18 24 19 14 18 20 18 20 20 22 25 28 31 33 37 36 28 22 21 21 21 20 20 19 18 20 21 20 21 27
33 36 29 31 25 24 25 27 25 26 21 23 22 16 19 22 23 25 22 23 25 20 15 19 21 23 23 23 23 26 29 33 35 38 35 27 23 22 22 23 22 21 19 18 19 20 19 19 20
39 45 32 29 24 26 28 27 33 32 33 29 26 21 21 22 23 26 26 27 24 21 21 20 23 21 24 25 26 28 30 33 36 39 33 27 23 21 23 23 22 20 20 17 18 20 21 20 17
47 45 35 27 27 33 34 38 34 33 36 34 29 23 23 23 26 27 28 27 23 23 21 22 25 22 23 24 26 29 31 34 36 38 31 24 21 20 20 22 25 22 18 17 18 19 20 19 17
47 39 37 33 34 31 35 40 40 40 36 37 33 26 22 26 26 23 26 28 27 24 20 24 26 23 23 24 26 29 33 35 36 35 28 25 23 21 21 23 27 22 17 15 16 16 17 19 19
44 39 37 34 35 32 38 41 43 44 43 45 37 28 25 26 26 25 28 27 29 24 26 25 28 25 24 25 27 29 35 35 35 31 27 26 23 23 24 26 25 21 17 16 15 15 18 20 20
39 39 39 39 33 38 37 50 49 48 46 41 34 29 29 28 28 29 27 28 29 28 29 28 29 26 25 27 27 30 35 34 32 27 25 24 24 26 25 23 21 19 17 16 16 18 18 20 21
32 36 38 36 32 36 39 52 51 44 37 33 33 33 28 28 30 31 31 32 24 26 30 30 30 27 27 28 28 32 32 32 28 26 27 27 27 25 22 23 18 16 14 15 17 18 16 19 20
36 40 39 38 27 38 41 47 38 32 31 32 31 29 25 25 26 27 26 29 27 28 32 32 31 29 28 28 29 32 31 28 26 27 29 28 24 20 18 19 15 12 13 14 15 14 16 18 19
37 36 40 37 37 40 39 41 41 28 25 23 25 19 21 22 19 21 23 26 27 28 31 35 34 31 29 28 30 30 29 25 24 26 26 24 17 14 16 17 12 12 13 13 13 12 15 18 21
41 40 43 39 40 37 41 37 41 30 27 21 16 16 18 21 21 19 19 23 29 28 25 30 36 31 29 28 30 27 26 23 24 24 23 18 16 15 13 15 11 10 11 12 11 13 16 20 21
44 46 49 44 44 37 39 39 31 27 22 19 14 16 19 21 23 27 24 26 30 27 23 26 29 29 27 28 28 26 24 21 24 23 21 17 14 14 13 11 10 9 10 10 10 13 16 21 19
47 52 45 47 30 24 33 41 37 23 22 18 15 10 9 15 18 20 24 26 22 20 21 23 24 25 25 28 24 24 21 21 23 22 19 13 12 13 10 9 8 8 8 8 10 14 18 21 20
54 50 45 44 36 19 8 12 34 24 21 21 12 12 13 18 19 22 15 10 6 8 13 18 21 21 25 23 23 20 19 20 20 20 15 13 11 8 4 6 5 5 6 7 13 19 19 18 22
54 43 44 41 38 31 29 17 28 29 22 24 17 17 15 14 13 11 9 9 8 6 11 17 17 21 21 21 20 17 17 18 16 14 13 12 8 5 3 4 4 5 5 10 18 21 14 11 15
35 16 22 26 23 13 28 20 29 31 28 24 19 11 8 8 6 10 9 11 7 8 12 14 17 18 19 20 15 15 15 15 14 14 12 10 5 2 3 5 5 8 8 15 19 16 10 9 13
30 24 4 5 6 5 21 16 35 12 9 21 17 13 11 10 12 9 8 7 7 7 10 15 15 16 17 14 12 12 12 12 13 14 9 6 2 3 4 7 7 11 12 16 16 14 10 14 17
38 37 16 8 4 4 18 14 17 15 13 10 10 13 12 11 13 8 3 5 5 8 12 13 13 13 13 9 10 10 10 9 13 11 2 3 1 4 5 8 8 12 12 13 15 13 12 14 17
37 38 32 11 8 2 11 11 22 21 13 10 13 11 14 13 14 5 4 6 6 10 13 10 10 10 8 7 8 8 6 7 8 6 2 5 3 4 7 9 9 12 10 12 13 12 9 14 16
38 35 28 24 6 4 6 9 13 15 17 5 7 10 10 16 10 4 6 7 8 10 8 6 8 7 6 6 6 5 3 5 6 2 3 2 5 7 9 11 10 11 10 11 10 10 12 12 14
33 35 21 26 13 5 1 8 15 14 8 9 4 6 11 13 5 5 6 9 9 8 6 5 6 6 5 5 5 3 2 4 6 2 3 7 8 10 11 12 12 11 10 10 10 12 13 12 14
42 42 43 24 20 16 3 5 19 16 13 14 12 9 14 10 6 5 7 9 9 7 6 4 4 5 4 4 2 2 1 4 5 6 5 9 9 9 11 14 13 11 9 9 10 12 13 12 15

GFSSGP_700_spd_030.txt.gz
Wind_Speed
10 10 10 9 4 6 12 8 7 5 3 5 4 3 6 9 8 11 14 13 16 15 17 14 16 20 19 13 11 12 13 13 13 15 16 17 17 16 15 18 20 21 22 20 21 22 21 22 24
11 10 9 6 5 12 12 10 8 7 7 6 5 7 8 9 10 10 10 14 16 16 17 13 15 18 15 10 8 8 11 12 13 15 17 19 20 18 17 17 19 21 22 23 21 23 25 24 24
11 11 7 5 10 12 5 10 7 4 5 5 5 10 8 7 13 10 11 14 16 15 16 16 14 18 12 8 6 6 9 12 14 16 18 21 23 22 18 15 16 19 21 22 22 23 25 26 25
12 10 11 10 11 8 8 9 8 6 7 11 10 8 11 9 5 8 13 14 15 16 16 19 15 17 12 10 9 9 9 12 13 16 19 22 25 25 20 18 17 17 18 18 21 23 23 26 26
13 9 13 13 13 11 11 12 11 11 10 7 9 8 8 7 8 10 9 12 15 18 17 20 15 14 14 12 13 13 12 13 15 17 19 22 25 27 23 19 18 18 18 18 19 20 22 24 27
11 11 15 17 15 11 11 10 11 12 14 10 6 8 7 9 13 12 11 11 15 19 19 20 13 9 11 12 14 15 17 18 20 21 23 26 27 28 25 19 16 17 17 17 18 19 21 20 24
17 15 17 17 16 15 13 11 8 9 11 10 10 10 10 8 13 13 13 13 14 18 19 22 14 11 10 12 14 15 15 18 22 23 25 27 29 30 27 21 17 16 17 16 17 18 19 20 21
18 17 20 20 19 17 11 7 6 6 10 16 17 14 12 15 20 21 18 17 16 16 18 21 16 14 11 12 13 14 14 17 20 23 25 27 29 31 28 22 21 19 18 18 18 19 20 21 21
22 21 24 24 21 18 10 9 14 17 17 15 17 28 21 26 24 23 23 19 17 18 20 20 18 17 17 16 15 15 15 18 19 22 26 28 30 31 28 23 22 22 21 20 19 20 22 23 24
26 27 30 28 24 23 21 21 20 22 20 20 19 22 23 27 28 28 27 26 22 19 20 24 23 22 20 21 18 17 17 18 20 23 28 30 30 30 27 24 22 22 22 19 18 20 22 24 25
28 41 37 32 28 26 30 29 25 27 27 29 23 22 24 28 31 34 31 31 25 25 20 25 23 24 28 26 22 20 21 20 23 24 28 31 31 30 27 25 23 21 21 20 20 22 24 26 26
40 41 36 35 36 33 29 30 32 33 30 31 28 28 29 32 35 36 32 32 27 26 21 21 23 25 26 30 26 23 23 23 26 27 29 31 31 28 27 25 23 22 22 23 24 25 25 24 26
44 38 38 36 36 36 34 35 42 36 33 33 30 32 35 39 41 43 37 34 29 24 21 22 26 26 30 32 30 25 25 26 28 28 31 31 30 28 28 27 25 24 24 25 26 24 21 22 24
39 39 41 38 38 35 36 40 37 35 34 35 32 32 39 44 44 38 34 32 30 24 23 26 24 28 32 34 32 29 28 28 29 30 32 31 29 29 29 28 26 25 25 21 22 23 21 18 18
39 40 40 34 34 38 37 45 41 34 35 35 34 36 43 43 39 33 25 22 28 27 27 25 24 27 31 36 34 32 30 28 30 31 32 30 29 29 28 27 27 22 20 21 21 18 19 16 15
33 39 43 39 35 34 29 48 39 30 29 30 32 39 42 41 34 26 20 22 27 29 29 26 31 33 30 31 34 35 33 29 30 32 32 29 29 28 27 28 24 21 19 20 17 16 18 16 17
42 48 48 38 33 31 34 51 37 29 28 27 37 41 44 41 32 24 22 23 29 28 28 26 30 30 29 25 32 35 33 30 30 32 31 29 28 28 27 26 23 19 19 17 16 16 17 17 18
46 39 43 43 34 27 36 44 36 32 33 31 36 39 39 33 27 22 22 24 24 22 19 23 27 30 29 28 32 33 32 30 30 32 29 29 27 29 26 24 20 19 18 16 16 16 16 16 16
42 45 44 36 34 35 39 42 37 34 34 36 36 37 39 31 18 20 20 20 18 21 23 24 27 28 28 27 30 30 29 29 31 30 29 27 26 27 24 20 19 18 18 14 16 14 15 13 15
42 42 46 39 34 36 37 42 40 39 42 39 40 38 32 21 20 19 19 20 19 23 28 29 31 28 24 25 26 26 25 28 29 28 28 25 25 23 20 20 19 19 18 13 12 13 12 13 15
47 45 39 40 32 32 36 44 46 41 39 36 34 33 29 23 17 11 15 18 20 22 25 28 28 22 17 19 21 21 24 27 25 26 25 24 23 20 18 17 15 10 9 11 11 10 11 12 14
48 35 34 37 32 41 35 36 45 34 36 33 33 28 24 22 20 13 14 20 22 21 19 20 18 12 13 16 17 19 23 22 23 22 23 23 21 18 15 10 12 8 9 9 9 10 13 12 14
53 35 33 32 35 38 40 36 43 29 34 33 27 23 21 22 18 17 19 17 13 13 15 16 11 11 13 13 16 19 20 20 19 21 22 20 19 15 8 12 8 7 8 8 8 12 14 16 15
34 25 25 26 30 29 37 36 43 42 41 33 23 19 20 25 17 17 17 11 10 11 14 11 10 11 10 13 16 18 17 15 17 19 20 17 11 8 10 7 6 6 6 6 10 12 15 15 15
38 33 15 17 19 18 28 29 35 37 24 28 19 14 23 22 17 14 13 12 9 9 11 11 11 10 13 14 15 14 12 14 15 15 13 7 6 7 5 4 4 4 4 9 14 13 11 11 11
48 44 24 19 15 16 27 14 25 18 27 27 23 15 21 21 16 13 14 12 9 7 8 10 9 12 12 12 11 10 12 13 11 11 10 8 8 3 3 3 3 4 11 15 12 7 7 7 11
42 46 38 15 15 9 20 23 26 23 13 19 19 22 24 24 19 16 15 11 8 7 8 9 10 9 10 10 8 10 11 10 9 10 8 9 1 3 4 4 6 8 13 12 9 6 6 11 10
40 38 34 30 18 16 14 14 15 5 11 15 19 23 22 26 17 16 16 11 8 6 9 10 8 8 8 7 7 10 8 8 9 7 5 4 1 4 5 7 10 9 10 9 7 7 5 9 9
37 43 34 31 20 14 7 11 12 13 10 17 17 18 23 22 19 17 13 10 8 6 10 7 6 8 7 7 7 8 7 5 6 3 2 1 4 5 7 9 10 9 11 10 9 7 7 11 11
40 33 41 26 26 17 10 7 4 7 9 19 13 21 22 19 17 15 9 7 6 7 8 6 6 7 7 6 6 5 5 4 3 1 2 3 4 7 9 9 10 8 8 8 9 10 10 12 11

GFSSGP_700_spd_033.txt.gz
Wind_Speed
10 10 10 10 5 9 15 15 7 4 6 5 6 6 6 8 10 10 16 12 13 14 14 16 15 17 18 15 12 10 11 13 13 14 14 15 16 16 16 17 19 20 20 20 22 22 22 23 24
10 11 11 5 9 20 19 11 9 9 6 8 8 8 9 8 7 8 10 10 13 13 14 15 15 16 16 13 10 8 9 11 12 13 15 16 18 20 20 17 16 19 21 22 22 22 24 24 24
11 12 5 7 16 19 7 11 11 6 6 6 7 7 8 4 7 5 13 11 11 12 13 13 14 14 13 11 9 8 9 10 12 13 15 17 18 21 22 20 17 17 18 21 22 23 24 24 25
12 10 10 14 19 13 13 5 9 7 9 8 8 9 7 10 5 8 14 12 12 12 14 15 15 14 10 10 9 9 9 10 11 14 16 18 20 21 24 23 19 18 17 18 19 22 23 24 26
13 10 16 18 18 17 11 14 9 10 11 11 8 10 9 8 13 14 15 17 14 14 14 16 16 13 10 7 8 9 10 11 12 15 17 19 21 22 24 25 22 19 18 17 17 17 22 22 24
12 13 19 22 21 18 15 13 13 13 13 13 10 9 10 12 11 12 16 19 20 16 17 18 20 13 12 10 9 10 11 12 13 15 18 21 22 24 24 26 23 19 19 18 17 18 19 22 24
19 19 20 22 22 15 14 14 15 14 13 12 13 10 10 11 12 16 19 20 20 21 21 21 19 17 15 12 12 12 14 13 13 15 18 22 24 26 26 27 25 21 19 19 19 19 19 19 19
19 20 25 25 24 22 17 13 14 11 12 6 13 16 14 10 15 22 17 15 19 23 25 22 22 22 19 17 17 16 16 15 15 16 19 22 25 27 27 27 24 22 21 20 21 21 21 20 19
18 26 29 26 24 23 20 19 16 16 16 16 16 19 21 22 22 20 19 20 20 20 23 27 25 22 21 23 23 22 21 17 17 19 21 23 26 28 31 32 27 22 22 22 22 23 22 21 21
27 30 30 26 24 25 25 22 19 22 19 21 22 20 19 18 19 19 21 23 23 26 25 28 25 25 23 26 28 26 26 22 21 21 23 25 28 31 29 29 29 25 24 23 21 21 21 21 22
30 39 30 28 27 28 33 35 31 30 31 26 28 26 24 25 25 24 26 27 28 29 29 29 32 27 25 26 31 31 27 26 25 24 25 27 28 31 32 31 30 25 23 23 23 21 22 24 24
38 38 36 35 36 37 37 35 38 37 35 30 30 28 25 27 27 29 30 32 35 32 32 27 35 26 25 31 31 32 31 28 28 28 26 27 30 32 30 28 27 30 26 25 24 24 26 27 26
43 41 41 42 40 41 40 43 43 40 36 33 33 30 27 28 29 31 32 36 35 32 29 29 30 24 27 29 33 33 34 32 30 30 30 27 30 34 31 30 28 28 27 26 25 25 24 23 24
46 47 48 46 45 44 43 45 40 40 38 38 35 33 30 31 31 33 34 35 32 26 28 34 30 27 30 27 31 33 34 35 34 32 32 31 29 34 30 31 29 27 26 26 22 20 22 20 21
48 49 51 53 46 44 41 51 48 41 37 39 37 33 32 30 29 34 35 33 27 23 23 29 30 30 27 27 29 33 33 34 37 34 34 32 31 33 30 30 29 28 26 25 21 21 22 20 19
46 47 52 51 45 43 38 56 41 37 36 34 33 33 33 30 30 34 33 29 24 23 26 29 31 32 30 30 34 33 29 32 35 35 34 34 32 32 31 30 29 26 25 24 22 22 19 17 16
43 50 55 45 40 41 42 55 41 35 37 37 36 31 30 31 32 33 31 24 27 29 27 30 31 32 34 34 30 28 31 32 33 33 33 34 33 32 30 28 28 26 25 22 22 20 17 16 16
54 49 48 49 43 40 44 50 43 37 37 36 38 35 35 34 33 32 30 25 30 30 26 25 26 26 26 29 29 30 30 31 31 32 31 31 33 31 28 27 26 25 22 21 21 17 17 17 17
52 35 42 46 40 37 45 52 42 38 35 35 34 34 36 34 33 30 23 25 25 26 24 23 23 27 28 31 26 26 28 27 29 29 29 31 31 28 26 25 23 21 21 21 20 15 15 16 16
45 45 47 43 39 40 42 43 42 41 40 38 38 38 38 37 31 24 23 25 25 23 20 23 25 26 28 27 24 25 24 25 25 26 31 30 28 26 24 23 21 19 19 21 17 12 14 14 16
47 46 45 44 35 35 40 46 47 44 43 43 43 42 37 34 27 22 26 20 17 21 22 22 24 26 24 22 17 17 19 20 22 27 29 27 23 24 22 21 17 15 16 10 10 12 13 12 12
51 44 39 36 34 36 33 34 51 42 39 38 37 32 30 25 24 21 26 17 17 17 20 22 19 19 20 13 14 14 16 19 24 24 24 25 23 23 21 18 13 13 10 10 9 10 10 11 12
58 35 36 34 32 36 41 33 48 33 36 35 30 29 29 25 20 21 25 20 18 19 17 15 16 16 13 14 13 14 17 21 23 21 22 20 22 17 11 11 12 9 8 8 9 9 11 12 12
41 38 36 32 34 28 42 34 48 42 40 34 30 26 22 23 21 26 20 20 17 15 14 12 12 13 14 12 13 15 17 19 17 18 18 19 14 10 9 10 6 6 9 8 7 8 12 13 14
38 41 26 25 27 27 32 33 45 36 33 30 29 27 17 18 28 24 19 18 16 16 11 9 11 12 12 13 13 15 15 13 14 13 15 13 12 9 6 6 5 7 5 3 7 10 11 12 12
51 50 30 32 14 22 35 37 41 27 29 30 23 15 15 21 25 22 18 15 16 13 9 8 10 12 13 11 12 11 11 13 11 10 12 13 11 4 4 3 3 2 6 10 12 10 8 11 12
57 49 59 34 31 29 28 27 23 25 22 16 20 24 19 18 23 22 15 16 15 11 8 9 10 11 10 10 10 10 10 9 9 12 10 8 4 2 3 3 5 7 13 11 7 4 5 7 10
50 52 40 46 28 24 20 19 14 8 9 16 18 19 25 21 25 20 17 18 14 9 8 9 9 9 9 10 7 10 8 8 8 9 6 5 3 2 3 5 8 9 10 9 5 3 4 8 9
48 44 51 39 35 17 16 15 16 15 15 8 16 21 25 23 25 19 18 18 13 9 8 9 7 7 9 8 7 8 6 6 7 6 3 2 2 3 3 7 8 9 8 7 5 5 4 6 9
47 44 47 33 35 32 14 11 4 6 10 11 14 18 24 23 23 21 17 16 12 9 8 6 5 7 8 5 7 5 4 4 5 3 1 1 2 3 5 7 8 8 8 7 5 5 6 10 8

GFSSGP_700_spd_036.txt.gz
Wind_Speed
7 8 8 8 7 9 17 19 14 7 5 3 2 4 9 6 10 4 10 10 21 13 12 11 12 15 15 16 15 12 11 11 11 12 13 14 15 17 19 19 18 18 17 19 20 20 20 21 22
9 9 8 8 9 18 17 9 6 5 8 2 4 4 5 3 3 9 1 8 17 12 11 11 12 13 14 15 13 10 10 9 10 11 13 15 16 16 17 20 20 19 19 19 20 21 22 21 22
9 13 6 6 14 21 21 10 25 12 9 6 3 4 8 2 3 1 11 15 18 15 14 11 12 13 15 15 12 10 9 9 10 11 14 15 16 17 19 20 22 20 20 20 20 20 20 22 22
10 11 10 14 19 23 19 9 4 4 8 5 5 6 4 12 10 11 11 15 19 18 18 14 13 14 14 13 8 8 8 9 11 12 14 16 17 18 20 22 24 22 18 19 20 20 19 19 22
12 9 15 17 22 19 16 13 4 8 8 9 8 4 5 7 12 14 16 12 16 21 20 19 17 15 14 12 7 8 8 9 11 12 14 15 17 19 21 22 25 25 20 18 18 18 16 18 21
13 11 15 21 22 20 18 10 15 12 12 13 11 8 6 11 6 6 14 17 17 15 24 20 20 19 16 16 12 10 11 11 12 12 14 15 18 21 23 23 25 27 22 18 18 17 17 19 22
18 15 21 21 24 23 14 10 14 15 10 8 7 9 4 5 11 16 22 18 17 18 24 22 23 22 20 18 17 15 15 15 14 14 15 17 19 22 25 25 25 26 24 20 18 18 18 18 19
18 19 25 27 29 25 19 15 13 14 14 6 5 7 12 13 11 16 11 13 21 22 22 27 23 23 25 21 21 21 21 19 17 17 18 20 21 22 24 26 25 25 23 22 20 19 19 20 20
18 26 30 27 26 24 21 19 15 18 13 19 14 14 15 16 22 22 19 15 16 19 30 34 36 25 26 24 23 24 26 25 24 22 22 23 23 24 25 27 27 25 25 23 21 21 20 20 19
27 34 34 25 26 27 23 22 23 19 15 21 15 18 20 17 21 17 19 21 22 21 22 37 37 38 25 30 26 25 27 29 29 26 25 25 25 25 26 31 31 28 27 25 25 23 21 19 19
29 41 31 31 28 27 29 29 25 27 30 32 28 25 27 24 24 26 26 22 24 26 26 28 40 40 29 30 32 27 27 30 29 28 27 26 27 29 28 27 32 31 30 26 27 25 22 21 21
35 38 34 32 33 35 34 33 36 34 32 29 32 31 27 27 25 26 28 25 27 28 32 35 41 39 33 38 37 27 27 30 31 30 29 29 30 29 27 27 30 30 31 28 26 25 23 23 23
39 37 35 36 36 37 38 41 41 41 38 39 35 34 34 34 32 28 29 30 30 35 37 37 35 34 32 36 32 31 29 30 32 32 30 32 30 28 30 30 29 29 30 29 28 26 22 22 23
37 38 39 40 41 40 42 45 43 44 40 40 37 38 37 36 32 31 32 31 34 37 41 30 30 32 35 37 30 29 29 33 34 31 29 36 31 29 30 30 30 28 28 27 26 25 23 21 22
40 44 46 48 45 48 45 54 50 43 40 42 41 40 37 36 34 30 31 29 37 41 37 28 30 41 43 33 28 31 31 34 35 30 31 36 33 29 30 30 31 31 28 25 25 24 22 22 24
42 44 55 53 51 53 45 60 50 42 38 38 36 37 38 32 29 31 35 33 39 37 32 26 26 28 28 29 29 32 33 33 31 34 38 34 32 30 30 30 29 29 27 25 24 24 22 22 24
46 47 51 53 50 46 45 52 48 41 39 41 38 34 35 35 35 32 28 35 35 36 35 26 27 31 29 31 31 33 35 31 34 36 35 34 32 30 30 29 29 27 25 24 23 21 21 23 21
43 48 55 47 42 39 45 46 47 42 40 42 43 33 35 37 36 34 30 32 37 37 33 24 25 31 30 28 29 30 31 31 32 32 30 32 32 31 30 30 26 25 24 23 20 22 21 21 18
42 48 49 45 41 40 40 44 47 42 40 42 40 40 37 35 35 37 33 31 36 32 27 24 26 27 28 26 28 30 29 27 27 27 28 28 29 28 30 27 25 24 22 19 19 21 21 19 15
48 47 46 45 39 36 37 42 46 41 37 36 37 38 35 36 33 27 29 34 32 31 27 24 24 24 23 22 24 25 26 25 23 23 25 25 27 27 25 25 24 22 20 18 19 21 17 13 14
46 48 47 47 36 40 37 42 42 43 43 40 37 40 36 34 41 39 33 36 31 28 23 23 21 20 22 18 20 22 20 18 17 19 24 25 25 23 24 23 21 18 17 16 15 11 11 11 13
49 45 39 39 35 38 32 29 45 42 38 36 37 34 34 33 33 31 26 33 31 25 19 16 18 18 15 18 19 14 12 14 18 20 23 25 25 23 22 17 14 11 13 11 12 11 10 11 12
57 33 37 38 41 37 35 29 60 32 30 29 27 27 28 30 27 26 32 30 27 22 19 18 17 14 15 17 12 11 11 15 18 19 21 20 19 22 17 12 10 10 9 8 8 9 9 10 11
36 37 38 39 38 27 44 34 60 38 36 32 29 30 29 23 21 19 33 28 27 23 18 14 13 12 14 13 11 12 13 16 17 18 17 17 15 14 12 9 8 8 6 7 7 8 9 10 10
40 38 26 25 24 23 32 35 50 38 32 27 29 28 27 24 20 31 30 26 23 21 17 14 10 12 12 10 11 14 12 13 14 15 14 13 15 12 7 6 6 5 5 5 6 7 8 9 12
46 46 29 25 17 21 36 41 45 41 37 31 24 23 18 18 23 29 26 26 20 18 15 11 11 11 10 10 11 11 11 12 12 10 11 10 11 6 4 5 3 2 3 6 8 8 8 11 10
43 52 54 36 33 29 29 31 39 36 26 22 17 18 14 25 23 25 24 22 17 16 11 9 11 11 9 9 9 9 10 11 9 8 9 6 6 3 2 1 1 4 10 10 7 4 5 7 11
46 39 45 43 25 24 26 33 27 13 18 16 18 16 21 19 23 22 24 20 14 14 10 10 11 8 7 8 9 9 9 6 5 5 5 4 4 3 2 3 5 9 9 6 3 2 5 4 4
44 48 48 42 37 16 15 21 20 9 11 9 13 20 23 28 25 20 22 16 15 13 10 10 9 6 6 8 9 8 6 5 3 5 3 2 2 1 3 5 5 6 6 3 1 2 3 5 4
45 41 42 42 34 36 25 25 8 9 16 11 9 17 25 28 24 21 20 14 16 13 10 8 5 6 5 7 6 5 4 3 3 2 1 1 1 3 6 6 6 5 4 3 1 1 2 4 3